Lanai City, HI

4:53 AM HST on April 24, 2017 (GMT -1000)
Lanai City

Weather History for PHNY - March, 2014

Change the Weather History Date:

Saturday, March 15, 2014

  Actual Average Record
Temperature  
Mean Temperature 68 °F -  
Max Temperature 74 °F 76 °F 82 °F (1997)
Min Temperature 62 °F 59 °F 55 °F (1954)
Cooling Degree Days 3    
Growing Degree Days 18 (Base 50)    
Moisture  
Dew Point 64 °F    
Average Humidity 87    
Maximum Humidity 100    
Minimum Humidity 69    
Precipitation  
Precipitation 0.00 in - - ()
Sea Level Pressure  
Sea Level Pressure 30.05 in    
Wind  
Wind Speed 23 mph (NE)    
Max Wind Speed 39 mph    
Max Gust Speed 53 mph    
Visibility 10 miles    
Events Rain    
Averages and records for this station are not official NWS values.
T = Trace of Precipitation, MM = Missing Value Source: NWS Daily Summary

Daily Weather History Graph

Daily Weather History Graph

Search for Another Location

Airport or City:

Trip Planner

Search our weather history database for the weather conditions in past years. The results will help you decide how hot, cold, wet, or windy it might be!

Date:

Astronomy

Mar. 15, 2014 Rise Set
Actual Time 6:36 AM HST 6:37 PM HST
Civil Twilight 6:14 AM HST 6:59 PM HST
Nautical Twilight 5:48 AM HST 7:25 PM HST
Astronomical Twilight 5:22 AM HST 7:50 PM HST
Moon 6:07 PM HST (3/15) 5:50 AM HST (3/15)
Length of Visible Light 12h 45m
Length of Day
12h 01m
Waxing Gibbous, 99% of the Moon is Illuminated
Mar 15
Waxing Gibbous
Mar 16
Full
Mar 23
Last Quarter
Mar 30
New
Apr 6
First Quarter

Hourly Weather History & Observations

Time (HST) Temp. Dew Point Humidity Pressure Visibility Wind Dir Wind Speed Gust Speed Precip Events Conditions
12:56 AM 66.9 °F 66.9 °F 100% 30.04 in 10.0 mi NE 12.7 mph - 0.00 in Rain Light Rain
1:56 AM 66.2 °F 66.2 °F 100% 30.08 in 10.0 mi NNE 18.4 mph - N/A   Mostly Cloudy
2:35 AM 66.2 °F 66.2 °F 100% 30.08 in 4.0 mi NNE 18.4 mph 21.9 mph 0.00 in Rain Light Rain
2:56 AM 66.9 °F 66.9 °F 100% 30.02 in 10.0 mi NE 15.0 mph - 0.00 in Rain Light Rain
3:23 AM 66.2 °F 66.2 °F 100% 30.07 in 10.0 mi NE 16.1 mph - 0.00 in Rain Light Rain
3:56 AM 65.8 °F 65.8 °F 100% 30.01 in 10.0 mi NE 15.0 mph 20.7 mph 0.00 in Rain Light Rain
4:56 AM 66.2 °F 66.2 °F 100% 30.07 in 10.0 mi NE 18.4 mph - N/A   Overcast
5:56 AM 66.9 °F 66.9 °F 100% 30.03 in 10.0 mi NE 16.1 mph - 0.00 in Rain Light Rain
6:56 AM 66.9 °F 66.9 °F 100% 30.04 in 10.0 mi NE 18.4 mph - 0.00 in   Mostly Cloudy
7:56 AM 69.8 °F 68.0 °F 94% 30.11 in 10.0 mi NE 20.7 mph 26.5 mph N/A   Overcast
8:56 AM 70.0 °F 64.9 °F 84% 30.09 in 10.0 mi NE 17.3 mph 25.3 mph N/A   Mostly Cloudy
9:56 AM 73.9 °F 64.9 °F 73% 30.07 in 10.0 mi NE 31.1 mph - N/A   Mostly Cloudy
10:56 AM 74.8 °F 64.9 °F 71% 30.07 in 10.0 mi NE 27.6 mph 38.0 mph N/A   Clear
11:56 AM 74.8 °F 64.9 °F 71% 30.05 in 10.0 mi NE 28.8 mph 34.5 mph N/A   Clear
12:56 PM 74.8 °F 64.9 °F 71% 30.03 in 10.0 mi NE 29.9 mph 35.7 mph N/A   Clear
1:56 PM 74.8 °F 63.9 °F 69% 30.00 in 10.0 mi NE 31.1 mph 40.3 mph N/A   Clear
2:56 PM 73.9 °F 63.9 °F 71% 29.99 in 10.0 mi NE 31.1 mph 39.1 mph N/A   Clear
3:56 PM 72.9 °F 63.9 °F 73% 29.99 in 10.0 mi NE 31.1 mph 36.8 mph N/A   Partly Cloudy
4:23 PM 71.6 °F 64.4 °F 78% 30.05 in 10.0 mi NE 33.4 mph 40.3 mph N/A   Mostly Cloudy
4:31 PM 69.8 °F 62.6 °F 78% 30.04 in 10.0 mi NE 31.1 mph 38.0 mph N/A   Mostly Cloudy
4:40 PM 69.8 °F 62.6 °F 78% 30.04 in 10.0 mi NE 31.1 mph 38.0 mph N/A   Scattered Clouds
4:56 PM 68.0 °F 62.6 °F 83% 30.04 in 10.0 mi NE 29.9 mph 44.9 mph N/A   Mostly Cloudy
5:13 PM 68.0 °F 62.6 °F 83% 30.05 in 10.0 mi NE 35.7 mph 41.4 mph N/A   Mostly Cloudy
5:56 PM 64.9 °F 61.9 °F 90% 30.02 in 10.0 mi NE 31.1 mph 38.0 mph N/A   Scattered Clouds
6:12 PM 64.4 °F 62.6 °F 94% 30.07 in 10.0 mi NE 27.6 mph 43.7 mph N/A   Mostly Cloudy
6:23 PM 64.4 °F 62.6 °F 94% 30.08 in 10.0 mi NE 29.9 mph 43.7 mph N/A   Scattered Clouds
6:33 PM 64.4 °F 62.6 °F 94% 30.08 in 10.0 mi NE 33.4 mph 44.9 mph N/A   Mostly Cloudy
6:56 PM 63.9 °F 61.9 °F 93% 30.03 in 10.0 mi NE 34.5 mph 42.6 mph N/A   Mostly Cloudy
7:03 PM 64.4 °F 62.6 °F 94% 30.07 in 10.0 mi NE 32.2 mph 42.6 mph N/A   Mostly Cloudy
7:56 PM 64.4 °F 60.8 °F 88% 30.08 in 10.0 mi NE 36.8 mph 42.6 mph N/A   Mostly Cloudy
8:22 PM 62.6 °F 60.8 °F 94% 30.09 in 10.0 mi NE 39.1 mph 52.9 mph N/A   Scattered Clouds
8:56 PM 63.0 °F 61.0 °F 93% 30.06 in 10.0 mi NE 36.8 mph 49.5 mph N/A   Scattered Clouds
9:56 PM 63.0 °F 59.0 °F 87% 30.06 in 10.0 mi NE 33.4 mph 44.9 mph 0.00 in   Partly Cloudy
10:56 PM 63.0 °F 57.9 °F 84% 30.06 in 10.0 mi NE 38.0 mph 47.2 mph N/A   Clear
11:56 PM 63.0 °F 55.9 °F 78% 30.05 in 10.0 mi NE 35.7 mph 48.3 mph N/A   Clear